Address 0xd7a827fbaf38c98e8336c5658e4bcbcd20a4fd2d 1

 
Txn Hash Method
Block
From
To
Value [Txn Fee]
0xa8ae2f90c142550e220ea2e4f8742fcf7f362bf36e743d96d412f90990e7ad7fTransfer49690202022-01-24 14:29:161 min ago0xd7a827fbaf38c98e8336c5658e4bcbcd20a4fd2dOUT 0xff970a61a04b1ca14834a43f5de4533ebddb5cc80 ETH0.000649761252 ETH
0x5d0570832f4d8a9b8123755ace65caccf58bba8408ae2fb075c27e22eb821bedTransfer49689712022-01-24 14:28:212 mins ago0xd7a827fbaf38c98e8336c5658e4bcbcd20a4fd2dOUT 0xff970a61a04b1ca14834a43f5de4533ebddb5cc80 ETH0.000587616839 ETH
0xa1c9a9f733672d81a4fb6ac4d3e1b5e2a02cbdbf6f35e68732461c153149def7Transfer49686602022-01-24 14:23:337 mins ago0xd7a827fbaf38c98e8336c5658e4bcbcd20a4fd2dOUT0xdbdc9c80fe805afa2af2a4bfe90d9b9e253a2f510.042 ETH0.000501487054 ETH
0x3662f04adb8ac7eee93f93da61d55e17e29d62ab190c8b9eae72359cb6b3c35eTransfer49686242022-01-24 14:22:378 mins ago0xd7a827fbaf38c98e8336c5658e4bcbcd20a4fd2dOUT0x97511d6c9697285ecb6b4f18aeae2e2a7d072d8e0.149 ETH0.00050537886 ETH
0xfc8c1207160ad32bb0a12c8158501e221d4d22b53664fdc7a00f2aca536e7ba0Transfer49685982022-01-24 14:22:378 mins ago0xd7a827fbaf38c98e8336c5658e4bcbcd20a4fd2dOUT 0xff970a61a04b1ca14834a43f5de4533ebddb5cc80 ETH0.000589284756 ETH
0xa787297dcb39c2703c2e019e09edc3494cb5f2a27385540d9b486b0b4dbd3bf7Transfer49685702022-01-24 14:22:378 mins ago0xd7a827fbaf38c98e8336c5658e4bcbcd20a4fd2dOUT 0xff970a61a04b1ca14834a43f5de4533ebddb5cc80 ETH0.000649761252 ETH
0xcef5845817e7bf677e57593a38b314fe9beb707d4f1c549f80f746fe1c0338b6Transfer49683762022-01-24 14:18:4112 mins ago0xd7a827fbaf38c98e8336c5658e4bcbcd20a4fd2dOUT0xeb5c3ef2856f87a8759566b3fb80c43fc9c949be0.010977 ETH0.00050760275 ETH
0xb96e58ab36b22e80404386daf3cab56d29d99cbd72326c04d22628d5629c79d1Transfer49678072022-01-24 14:10:2520 mins ago0xd7a827fbaf38c98e8336c5658e4bcbcd20a4fd2dOUT0x7a07f6c147573b4e8befeaa8ae73c635798670980.10711897787885 ETH0.000518166224 ETH
0x9d22ae951fe3106da771da98b9b1b90ea452f8075f4f569d16c8e61f284ed244Transfer49677412022-01-24 14:08:4122 mins ago0xd7a827fbaf38c98e8336c5658e4bcbcd20a4fd2dOUT0x149b1728af55d2df7235909b53c31b345253449a0.011 ETH0.000503154971 ETH
0x4ce61d4d287a709ff184f9430fb1985360a3351fdd404e0bd83beca7b8b97d62Transfer49676542022-01-24 14:07:1323 mins ago0xd7a827fbaf38c98e8336c5658e4bcbcd20a4fd2dOUT0x467fe2de06d382f04b2a89494d757623a11968330.11245272 ETH0.000509826639 ETH
0x2f4ab8866e839610d617184c26224e259be9dcaef5de55542f0e13dfc7eb4ae6Transfer49672622022-01-24 14:01:0529 mins ago0xd7a827fbaf38c98e8336c5658e4bcbcd20a4fd2dOUT0xd5f36b1ddfd166ad9e9a54d5df5e4c01084b16b70.40214604 ETH0.000512050529 ETH
0xc5a08ba9fe364f898edd5a7ef16dac403f63d8f07985c1da2d4b0a34d2a1ab04Transfer49672062022-01-24 14:00:3030 mins ago0xd7a827fbaf38c98e8336c5658e4bcbcd20a4fd2dOUT0x635b0746fa97486fc6eb241b6f2a8b4a0a5fb50c0.039 ETH0.000504822888 ETH
0x407ec02ea36bb7ea86287e3d0bc8782bb2c2001798bdd8a2b75c9712827a2e55Transfer49670272022-01-24 13:55:2835 mins ago0xd7a827fbaf38c98e8336c5658e4bcbcd20a4fd2dOUT0xa97a9f9be8bdfa5d0138de39dc8aa41fe3da88520.268915 ETH0.000509826639 ETH
0x100d8bf2da081a9adf4dfebca2700e03360e407b6c43d870b0833734f3266501Transfer49669902022-01-24 13:54:5135 mins ago0xd7a827fbaf38c98e8336c5658e4bcbcd20a4fd2dOUT0x28d0c0c52b2764466fc6cd50622df2b3b1a3c5090.499 ETH0.000505934833 ETH
0xee9a212178762a23ed687ab34b5886f2cb9d2682676a46aa10e7fa81ba5f634aTransfer49668962022-01-24 13:51:3839 mins ago0xd7a827fbaf38c98e8336c5658e4bcbcd20a4fd2dOUT0xa2c2c33ed29fb22ae82fa70eb746766fe2ff759859.999 ETH0.000509270667 ETH
0x419735cf3db3d996f21ed2920f184bad21f93defa30f9f31ba5be8fe0b8bd09aTransfer49668512022-01-24 13:51:3839 mins ago0xd7a827fbaf38c98e8336c5658e4bcbcd20a4fd2dOUT 0xff970a61a04b1ca14834a43f5de4533ebddb5cc80 ETH0.000589276296 ETH
0x706c9ed0dbbc8ab0629bb8d017ba89bd2286a8589c2a17cdfb85b9f0b86e3e7fTransfer49665342022-01-24 13:43:3747 mins ago0xd7a827fbaf38c98e8336c5658e4bcbcd20a4fd2dOUT0x55b451320a34ce88fc8f1a1d9156e2aeb8aad6cb0.798488117991929 ETH0.000519278169 ETH
0xc863301430acb9e6f9f29213f6f754ed1c8e08a2662a6d2e15afbefb22128286Transfer49665082022-01-24 13:42:5647 mins ago0xd7a827fbaf38c98e8336c5658e4bcbcd20a4fd2dOUT0xe682d53708fa9e5fe1454d6753c1be75d359575b0.112396 ETH0.000508158722 ETH
0x6f11e85f417afd0c57fc25d5aa26123f97f3ec7c2a42852e1cb514f705dab3e4Transfer49664502022-01-24 13:41:1049 mins ago0xd7a827fbaf38c98e8336c5658e4bcbcd20a4fd2dOUT0xb03be385f4da2b881f0215dc780b26a6e65fc0bd0.435858 ETH0.000509826639 ETH
0x3c77d0c6c9dca98c268f089ded3949766033d18670c03d21455e1e507b9a3fd6Transfer49662752022-01-24 13:35:4354 mins ago0xd7a827fbaf38c98e8336c5658e4bcbcd20a4fd2dOUT0xcdd3b2d413f773b41d691d47fe04fa1274718d610.009 ETH0.000503154971 ETH
0x3c921c5ba169b1f81985005fbb372f41bfc19f19d3c68b9538b1fe67fc92c14cTransfer49662372022-01-24 13:33:2157 mins ago0xd7a827fbaf38c98e8336c5658e4bcbcd20a4fd2dOUT0x30c6126a3c41a3c9bb38ad571d4e605ea97d886a0.249 ETH0.00050537886 ETH
0x53d83621d61e357d43f35e719bb3842421d79ee4e2b102c26d7aa0c8b1f229f1Transfer49661012022-01-24 13:30:071 hr ago0xd7a827fbaf38c98e8336c5658e4bcbcd20a4fd2dOUT 0xff970a61a04b1ca14834a43f5de4533ebddb5cc80 ETH0.000644757501 ETH
0x5d2986a1c856e263cd81a96d29a7d2468220f34d1debbf242483eda000d83b32Transfer49660302022-01-24 13:27:161 hr 3 mins ago0xd7a827fbaf38c98e8336c5658e4bcbcd20a4fd2dOUT0xb1eaf12240717781fbaa42ad2bd3a267483079e60.624 ETH0.000505934833 ETH
0xfd811d2b19c8005a1d71e283e6bbf8e771f8e07fc375f9019ced353e9a756fccTransfer49659602022-01-24 13:25:131 hr 5 mins ago0xd7a827fbaf38c98e8336c5658e4bcbcd20a4fd2dOUT0x47502b8a0544e7a5fb989c03e2086d4a5f339a470.195829 ETH0.000507258041 ETH
0x36352ac4c9c31e59e26f43568e19a39feb6874737a6d9b579f52f1dbc346589dTransfer49658652022-01-24 13:23:141 hr 7 mins ago0xd7a827fbaf38c98e8336c5658e4bcbcd20a4fd2dOUT0xff20abba6c0a0de8227de0c7b5cebf4bda409db70.104 ETH0.000500619986 ETH
[ Download CSV Export 
Parent Txn Hash Block From To Value
Loading

Contract Name:
0 ETH

Compiler Version
0

Optimization Enabled:
0 ETH

Other Settings:
-NA-
Block Transaction Gas Used Reward
Age Block Fee Address BC Fee Address Voting Power Jailed Incoming
Block Uncle Number Difficulty Gas Used Reward
Loading
Loading
Make sure to use the "Vote Down" button for any spammy posts, and the "Vote Up" for interesting conversations.